User: anonymous   Login
Location: Lake Runnemede Observatory
(43.4843°N, 72.3851°W)
Time: 02:41:23
(UTC-04:00)
Language:

SPOT 5 - Orbit

View from above orbital plane
View from above orbital plane
View from above satellite
View from above satellite

Ground track
Ground track

The orbit data is extracted from the following two-line orbital elements,

1 27421U 02021A   15089.83988765  .00000140  00000-0  85294-4 0  9995
2 27421 098.5211 148.2658 0001330 099.4705 032.0383 14.20124159669008
Epoch (UTC): 30 March 2015 20:09:26
Eccentricity: 0.0001330
inclination: 98.5211°
perigee height: 824 km
apogee height: 826 km
right ascension of ascending node: 148.2658°
argument of perigee: 99.4705°
revolutions per day: 14.20124159
mean anomaly at epoch: 32.0383°
orbit number at epoch: 66900

The dashed part of the orbit path shows where the satellite is in the earth's shadow,  

DLR